Orbital Elements at Epoch 2459200.5 (2020-Dec-17.0) TDB
Reference: JPL 29 (heliocentric ecliptic J2000)
Element | Value | Uncertainty (1-sigma) | Units |
e | .1934599142743641 | 4.8981e-08 | |
a | 2.371133063849103 | 7.9758e-09 | au |
q | 1.912413864583745 | 1.157e-07 | au |
i | 2.089796571323778 | 3.6413e-06 | deg |
node | 248.6058718889899 | 0.00012247 | deg |
peri | 73.63006811528466 | 0.0001229 | deg |
M | 147.0103837711981 | 1.1599e-05 | deg |
tp | 2458655.899761517954 (2019-Jun-21.39976152) | 4.2673e-05 | TDB |
period | 1333.62066558966 3.65 | 6.7288e-06 1.842e-08 | d yr |
n | .2699418277541659 | 1.362e-09 | deg/d |
Q | 2.82985226311446 | 9.5188e-09 | au |
|
| | Orbit Determination Parameters
Additional Information
|